When you browse on this site, cookies collect data to enhance your experience and personalize the content and advertising you see.
Visit our Privacy Policy to learn more. By continuing to use the site, you agree to this use of cookies and data.
  • In United Kingdom
  • List of Countries
  • For 7 days
  • Water Temperature
  • Weather Map
  • Weather Widgets
  • user-avatar
    Login

    Hourly Weather Tiszavasvari

    Today, 29 January, Wednesday

    Time Temperature Precipitation Wind Pressure Humidity
    00:00 0°C° 0.3 mm 3 mps 743 mmHg 94%
    01:00 0°C° 0 mm 3 mps 743 mmHg 94%
    02:00 0°C° 0 mm 3 mps 743 mmHg 93%
    03:00 0°C° 0 mm 3 mps 743 mmHg 92%
    04:00 0°C° 0 mm 3 mps 743 mmHg 91%
    05:00 -1°C° 0 mm 4 mps 744 mmHg 88%
    06:00 -1°C° 0 mm 5 mps 745 mmHg 85%
    07:00 -1°C° 0 mm 5 mps 746 mmHg 83%
    08:00 0°C° 0 mm 5 mps 746 mmHg 78%
    09:00 +1°C° 0 mm 5 mps 746 mmHg 74%
    10:00 +2°C° 0 mm 5 mps 746 mmHg 70%
    11:00 +2°C° 0 mm 5 mps 747 mmHg 69%
    12:00 +3°C° 0 mm 6 mps 747 mmHg 68%
    13:00 +3°C° 0 mm 6 mps 747 mmHg 67%
    14:00 +2°C° 0 mm 6 mps 747 mmHg 73%
    15:00 +2°C° 0 mm 5 mps 747 mmHg 79%
    16:00 +1°C° 0 mm 5 mps 747 mmHg 84%
    17:00 +1°C° 0 mm 5 mps 748 mmHg 85%
    18:00 0°C° 0 mm 5 mps 748 mmHg 87%
    19:00 -1°C° 0 mm 5 mps 749 mmHg 88%
    20:00 -1°C° 0 mm 4 mps 749 mmHg 88%
    21:00 -1°C° 0 mm 4 mps 749 mmHg 89%
    22:00 -1°C° 0 mm 3 mps 749 mmHg 89%
    23:00 0°C° 0 mm 3 mps 749 mmHg 88%

    Tomorrow, 30 January, Thursday

    Time Temperature Precipitation Wind Pressure Humidity
    00:00 0°C° 0 mm 3 mps 750 mmHg 87%
    01:00 0°C° 0 mm 3 mps 750 mmHg 87%
    02:00 0°C° 0 mm 3 mps 751 mmHg 86%
    03:00 0°C° 0 mm 3 mps 751 mmHg 86%
    04:00 -1°C° 0 mm 3 mps 751 mmHg 85%
    05:00 -1°C° 0 mm 2 mps 751 mmHg 86%
    06:00 -1°C° 0 mm 2 mps 752 mmHg 87%
    07:00 -2°C° 0 mm 2 mps 752 mmHg 88%
    08:00 -1°C° 0 mm 2 mps 752 mmHg 85%
    09:00 +1°C° 0 mm 2 mps 752 mmHg 81%
    10:00 +2°C° 0 mm 2 mps 753 mmHg 77%
    11:00 +3°C° 0 mm 2 mps 753 mmHg 75%
    12:00 +3°C° 0 mm 3 mps 753 mmHg 73%
    13:00 +3°C° 0 mm 4 mps 753 mmHg 71%
    14:00 +3°C° 0 mm 4 mps 753 mmHg 75%
    15:00 +1°C° 0 mm 5 mps 753 mmHg 78%
    16:00 +1°C° 0 mm 5 mps 753 mmHg 81%
    17:00 +1°C° 0 mm 5 mps 753 mmHg 83%
    18:00 +1°C° 0 mm 5 mps 753 mmHg 85%
    19:00 +1°C° 0 mm 5 mps 753 mmHg 88%
    20:00 +1°C° 0 mm 5 mps 752 mmHg 86%
    21:00 +1°C° 0 mm 5 mps 752 mmHg 84%
    22:00 +1°C° 0 mm 6 mps 752 mmHg 82%
    23:00 0°C° 0 mm 5 mps 751 mmHg 82%

    Day after tomorrow, 31 January, Friday

    Time Temperature Precipitation Wind Pressure Humidity
    00:00 0°C° 0 mm 5 mps 751 mmHg 82%
    01:00 0°C° 0 mm 5 mps 751 mmHg 82%
    02:00 0°C° 0 mm 5 mps 750 mmHg 83%
    03:00 -1°C° 0 mm 5 mps 750 mmHg 84%
    04:00 -1°C° 0 mm 5 mps 749 mmHg 85%
    05:00 0°C° 0.1 mm 5 mps 749 mmHg 87%
    06:00 0°C° 0.1 mm 5 mps 749 mmHg 89%
    07:00 0°C° 0.1 mm 5 mps 748 mmHg 91%
    08:00 +1°C° 0.3 mm 5 mps 748 mmHg 91%
    09:00 +1°C° 0.3 mm 6 mps 747 mmHg 92%
    10:00 +2°C° 0.3 mm 7 mps 747 mmHg 92%
    11:00 +3°C° 0.1 mm 7 mps 747 mmHg 88%
    12:00 +4°C° 0.1 mm 8 mps 747 mmHg 85%
    13:00 +5°C° 0.1 mm 8 mps 747 mmHg 82%
    14:00 +5°C° 0 mm 7 mps 747 mmHg 82%
    15:00 +7°C° 0 mm 6 mps 747 mmHg 83%
    16:00 +7°C° 0 mm 5 mps 747 mmHg 83%
    17:00 +6°C° 0 mm 4 mps 748 mmHg 84%
    18:00 +7°C° 0 mm 3 mps 749 mmHg 85%
    19:00 +7°C° 0 mm 1 mps 749 mmHg 86%
    20:00 +7°C° 0 mm 1 mps 750 mmHg 86%
    21:00 +6°C° 0 mm 1 mps 750 mmHg 86%
    22:00 +6°C° 0 mm 1 mps 751 mmHg 86%
    23:00 +6°C° 0 mm 1 mps 751 mmHg 86%

    1 February, Saturday

    Time Temperature Precipitation Wind Pressure Humidity
    00:00 +6°C° 0 mm 1 mps 751 mmHg 86%
    01:00 +5°C° 0 mm 1 mps 752 mmHg 86%
    02:00 +5°C° 0 mm 1 mps 752 mmHg 87%
    03:00 +4°C° 0 mm 1 mps 752 mmHg 88%
    04:00 +4°C° 0 mm 1 mps 752 mmHg 89%
    05:00 +4°C° 0 mm 1 mps 752 mmHg 89%
    06:00 +4°C° 0 mm 1 mps 752 mmHg 89%
    07:00 +3°C° 0 mm 1 mps 752 mmHg 90%
    08:00 +4°C° 0 mm 1 mps 752 mmHg 88%
    09:00 +6°C° 0 mm 1 mps 753 mmHg 86%
    10:00 +7°C° 0 mm 1 mps 753 mmHg 85%
    11:00 +7°C° 0 mm 2 mps 752 mmHg 83%
    12:00 +8°C° 0 mm 2 mps 752 mmHg 81%
    13:00 +9°C° 0 mm 2 mps 752 mmHg 78%
    14:00 +9°C° 0 mm 2 mps 752 mmHg 81%
    15:00 +8°C° 0 mm 2 mps 751 mmHg 84%
    16:00 +8°C° 0 mm 2 mps 751 mmHg 87%
    17:00 +8°C° 0 mm 2 mps 751 mmHg 88%
    18:00 +8°C° 0 mm 3 mps 751 mmHg 89%
    19:00 +8°C° 0 mm 3 mps 750 mmHg 91%
    20:00 +8°C° 0 mm 3 mps 750 mmHg 90%
    21:00 +7°C° 0 mm 4 mps 750 mmHg 90%
    22:00 +7°C° 0 mm 4 mps 749 mmHg 89%
    23:00 +7°C° 0 mm 4 mps 749 mmHg 90%

    2 February, Sunday

    Time Temperature Precipitation Wind Pressure Humidity
    00:00 +6°C° 0 mm 4 mps 749 mmHg 91%
    01:00 +7°C° 0 mm 3 mps 749 mmHg 92%
    02:00 +7°C° 0.1 mm 3 mps 748 mmHg 93%
    03:00 +6°C° 0.1 mm 4 mps 748 mmHg 94%
    04:00 +6°C° 0.1 mm 4 mps 748 mmHg 95%
    05:00 +7°C° 0.1 mm 3 mps 748 mmHg 93%
    06:00 +7°C° 0.1 mm 3 mps 749 mmHg 92%
    07:00 +7°C° 0.1 mm 3 mps 749 mmHg 91%
    08:00 +7°C° 0.1 mm 3 mps 750 mmHg 88%
    09:00 +7°C° 0.1 mm 3 mps 751 mmHg 86%
    10:00 +7°C° 0.1 mm 3 mps 751 mmHg 83%
    11:00 +7°C° 0.1 mm 3 mps 752 mmHg 80%
    12:00 +7°C° 0.1 mm 3 mps 753 mmHg 76%
    13:00 +7°C° 0.1 mm 2 mps 753 mmHg 73%
    14:00 +7°C° 0 mm 2 mps 754 mmHg 73%
    15:00 +7°C° 0 mm 2 mps 754 mmHg 73%
    16:00 +7°C° 0 mm 2 mps 755 mmHg 74%
    17:00 +6°C° 0 mm 2 mps 755 mmHg 76%
    18:00 +5°C° 0 mm 2 mps 756 mmHg 78%
    19:00 +5°C° 0 mm 2 mps 756 mmHg 80%
    20:00 +4°C° 0 mm 2 mps 756 mmHg 81%
    21:00 +4°C° 0 mm 2 mps 757 mmHg 82%
    22:00 +3°C° 0 mm 2 mps 757 mmHg 83%
    23:00 +3°C° 0 mm 2 mps 757 mmHg 84%

    3 February, Monday

    Time Temperature Precipitation Wind Pressure Humidity
    00:00 +2°C° 0 mm 3 mps 757 mmHg 84%
    01:00 +2°C° 0 mm 3 mps 757 mmHg 84%
    02:00 +2°C° 0 mm 3 mps 757 mmHg 84%
    03:00 +1°C° 0 mm 4 mps 756 mmHg 83%
    04:00 +1°C° 0 mm 4 mps 756 mmHg 82%
    05:00 +1°C° 0 mm 4 mps 756 mmHg 84%
    06:00 +2°C° 0 mm 5 mps 756 mmHg 86%
    07:00 +3°C° 0 mm 5 mps 756 mmHg 88%
    08:00 +3°C° 0 mm 5 mps 756 mmHg 85%
    09:00 +5°C° 0 mm 5 mps 756 mmHg 82%
    10:00 +6°C° 0 mm 5 mps 756 mmHg 79%
    11:00 +7°C° 0 mm 5 mps 756 mmHg 78%
    12:00 +8°C° 0 mm 5 mps 756 mmHg 77%
    13:00 +8°C° 0 mm 4 mps 755 mmHg 76%
    14:00 +8°C° 0 mm 4 mps 755 mmHg 79%
    15:00 +8°C° 0 mm 4 mps 755 mmHg 83%
    16:00 +7°C° 0 mm 4 mps 755 mmHg 86%
    17:00 +7°C° 0 mm 4 mps 755 mmHg 88%
    18:00 +8°C° 0 mm 3 mps 755 mmHg 90%
    19:00 +7°C° 0 mm 3 mps 755 mmHg 93%
    20:00 +7°C° 0 mm 3 mps 755 mmHg 93%
    21:00 +7°C° 0 mm 3 mps 755 mmHg 93%
    22:00 +7°C° 0 mm 3 mps 755 mmHg 94%
    23:00 +7°C° 0 mm 3 mps 754 mmHg 92%
    Show more